| time (UTC) | temp F | wind direction | speed MPH | gust MPH | rain 1hr in | rain 24hr in | rain mn in | humidity % | barometer mb |
| 20260510204530 | 87 | 306 | 6.0 | 11.0 | 0.00 | 0.05 | 0.01 | 71 | 1013.0 |
| 20260510204031 | 87 | 281 | 5.0 | 11.0 | 0.00 | 0.05 | 0.01 | 71 | 1013.0 |
| 20260510203529 | 87 | 232 | 6.0 | 11.0 | 0.00 | 0.05 | 0.01 | 71 | 1013.1 |
| 20260510203030 | 87 | 254 | 6.0 | 11.0 | 0.00 | 0.05 | 0.01 | 70 | 1013.1 |
| 20260510202548 | 87 | 298 | 6.0 | 12.0 | 0.00 | 0.05 | 0.01 | 70 | 1013.0 |
| 20260510202025 | 87 | 329 | 3.0 | 12.0 | 0.00 | 0.05 | 0.01 | 70 | 1013.0 |
| 20260510201525 | 88 | 285 | 5.0 | 13.0 | 0.00 | 0.05 | 0.01 | 70 | 1012.9 |
| 20260510201042 | 88 | 282 | 6.0 | 13.0 | 0.00 | 0.05 | 0.01 | 69 | 1012.9 |
| 20260510200605 | 88 | 300 | 4.0 | 15.0 | 0.00 | 0.05 | 0.01 | 69 | 1012.9 |
| 20260510200023 | 88 | 309 | 7.0 | 15.0 | 0.00 | 0.05 | 0.01 | 68 | 1012.9 |
| 20260510195540 | 88 | 307 | 3.0 | 12.0 | 0.00 | 0.05 | 0.01 | 68 | 1013.0 |
| 20260510195038 | 89 | 313 | 5.0 | 10.0 | 0.00 | 0.05 | 0.01 | 68 | 1013.0 |
| 20260510194537 | 89 | 248 | 5.0 | 13.0 | 0.00 | 0.05 | 0.01 | 68 | 1012.9 |
| 20260510194032 | 89 | 5 | 8.0 | 13.0 | 0.00 | 0.05 | 0.01 | 67 | 1012.9 |
| 20260510193531 | 89 | 240 | 5.0 | 12.0 | 0.00 | 0.05 | 0.01 | 66 | 1012.9 |
| 20260510193053 | 90 | 300 | 5.0 | 10.0 | 0.00 | 0.05 | 0.01 | 66 | 1013.0 |
| 20260510192529 | 90 | 312 | 2.0 | 11.0 | 0.00 | 0.05 | 0.01 | 66 | 1013.0 |
| 20260510192026 | 89 | 302 | 5.0 | 13.0 | 0.00 | 0.05 | 0.01 | 66 | 1013.0 |
| 20260510191526 | 90 | 281 | 5.0 | 12.0 | 0.00 | 0.05 | 0.01 | 65 | 1013.1 |
| 20260510191025 | 90 | 294 | 6.0 | 11.0 | 0.00 | 0.05 | 0.01 | 66 | 1013.0 |
| 20260510190525 | 90 | 277 | 4.0 | 11.0 | 0.00 | 0.05 | 0.01 | 65 | 1013.0 |
| 20260510190024 | 90 | 252 | 6.0 | 13.0 | 0.00 | 0.05 | 0.01 | 65 | 1013.1 |
| 20260510185543 | 90 | 280 | 6.0 | 13.0 | 0.00 | 0.05 | 0.01 | 64 | 1013.1 |
| 20260510185039 | 90 | 246 | 6.0 | 12.0 | 0.00 | 0.05 | 0.01 | 65 | 1013.2 |
| 20260510184539 | 89 | 167 | 6.0 | 14.0 | 0.00 | 0.05 | 0.01 | 65 | 1013.2 |
| 20260510184056 | 89 | 255 | 6.0 | 14.0 | 0.00 | 0.05 | 0.01 | 65 | 1013.2 |
| 20260510183533 | 90 | 253 | 4.0 | 13.0 | 0.00 | 0.05 | 0.01 | 65 | 1013.1 |
| 20260510183029 | 90 | 273 | 5.0 | 11.0 | 0.00 | 0.05 | 0.01 | 66 | 1013.2 |
| 20260510182528 | 89 | 215 | 3.0 | 11.0 | 0.00 | 0.05 | 0.01 | 66 | 1013.2 |
| 20260510182046 | 89 | 161 | 2.0 | 8.0 | 0.00 | 0.05 | 0.01 | 67 | 1013.4 |
| 20260510181523 | 89 | 248 | 4.0 | 8.0 | 0.00 | 0.05 | 0.01 | 67 | 1013.3 |
| 20260510181039 | 89 | 226 | 2.0 | 9.0 | 0.00 | 0.05 | 0.01 | 67 | 1013.5 |
| 20260510180540 | 89 | 246 | 5.0 | 9.0 | 0.00 | 0.05 | 0.01 | 67 | 1013.4 |
| 20260510180040 | 89 | 281 | 2.0 | 10.0 | 0.00 | 0.05 | 0.01 | 67 | 1013.4 |
| 20260510175536 | 89 | 218 | 5.0 | 9.0 | 0.00 | 0.05 | 0.01 | 67 | 1013.5 |
| 20260510175033 | 89 | 241 | 3.0 | 10.0 | 0.00 | 0.05 | 0.01 | 68 | 1013.5 |
| 20260510174533 | 90 | 200 | 3.0 | 10.0 | 0.00 | 0.05 | 0.01 | 68 | 1013.5 |
| 20260510174031 | 90 | 286 | 3.0 | 10.0 | 0.00 | 0.05 | 0.01 | 68 | 1013.5 |
| 20260510173526 | 89 | 161 | 5.0 | 10.0 | 0.00 | 0.05 | 0.01 | 68 | 1013.7 |
| 20260510173028 | 89 | 218 | 5.0 | 10.0 | 0.00 | 0.05 | 0.01 | 67 | 1013.7 |
| 20260510172525 | 90 | 246 | 4.0 | 13.0 | 0.00 | 0.05 | 0.01 | 68 | 1013.8 |
| 20260510172040 | 90 | 231 | 5.0 | 13.0 | 0.00 | 0.05 | 0.01 | 68 | 1013.8 |
| 20260510171539 | 90 | 221 | 3.0 | 10.0 | 0.00 | 0.05 | 0.01 | 67 | 1013.8 |
| 20260510170538 | 89 | 221 | 5.0 | 11.0 | 0.00 | 0.05 | 0.01 | 68 | 1014.0 |
| 20260510170037 | 89 | 207 | 4.0 | 9.0 | 0.00 | 0.05 | 0.01 | 69 | 1014.0 |
| 20260510165536 | 89 | 182 | 3.0 | 8.0 | 0.00 | 0.05 | 0.01 | 70 | 1014.0 |
| 20260510165038 | 89 | 188 | 4.0 | 8.0 | 0.00 | 0.05 | 0.01 | 69 | 1014.0 |
| 20260510164540 | 89 | 226 | 2.0 | 8.0 | 0.00 | 0.05 | 0.01 | 69 | 1014.2 |
| 20260510164058 | 88 | 250 | 3.0 | 10.0 | 0.00 | 0.05 | 0.01 | 71 | 1014.2 |
| 20260510163535 | 88 | 269 | 3.0 | 10.0 | 0.00 | 0.05 | 0.01 | 71 | 1014.1 |
| 20260510163102 | 88 | 193 | 2.0 | 10.0 | 0.00 | 0.05 | 0.01 | 71 | 1014.1 |
| 20260510162538 | 88 | 118 | 5.0 | 10.0 | 0.00 | 0.05 | 0.01 | 72 | 1014.1 |
| 20260510162056 | 87 | 200 | 5.0 | 12.0 | 0.00 | 0.05 | 0.01 | 72 | 1014.2 |
| 20260510161551 | 87 | 157 | 5.0 | 12.0 | 0.00 | 0.05 | 0.01 | 72 | 1014.2 |
| 20260510161028 | 87 | 171 | 4.0 | 10.0 | 0.00 | 0.05 | 0.01 | 74 | 1014.2 |
| 20260510160527 | 87 | 121 | 4.0 | 10.0 | 0.00 | 0.05 | 0.01 | 71 | 1014.3 |
| 20260510160027 | 87 | 122 | 5.0 | 11.0 | 0.00 | 0.05 | 0.01 | 73 | 1014.4 |
| 20260510155542 | 87 | 204 | 5.0 | 11.0 | 0.00 | 0.05 | 0.01 | 74 | 1014.4 |
| 20260510155039 | 86 | 146 | 4.0 | 7.0 | 0.00 | 0.05 | 0.01 | 75 | 1014.3 |
| 20260510154556 | 86 | 219 | 3.0 | 10.0 | 0.00 | 0.05 | 0.01 | 76 | 1014.4 |
| 20260510154032 | 86 | 191 | 3.0 | 6.0 | 0.00 | 0.05 | 0.01 | 75 | 1014.3 |
| 20260510153551 | 86 | 288 | 3.0 | 9.0 | 0.00 | 0.05 | 0.01 | 75 | 1014.3 |
| 20260510153031 | 85 | 211 | 4.0 | 10.0 | 0.00 | 0.05 | 0.01 | 75 | 1014.3 |
| 20260510152526 | 86 | 101 | 4.0 | 9.0 | 0.00 | 0.05 | 0.01 | 76 | 1014.2 |
| 20260510152041 | 86 | 148 | 2.0 | 9.0 | 0.00 | 0.05 | 0.01 | 75 | 1014.2 |
| 20260510151543 | 86 | 98 | 3.0 | 10.0 | 0.00 | 0.05 | 0.01 | 75 | 1014.2 |
| 20260510151103 | 85 | 156 | 4.0 | 12.0 | 0.00 | 0.05 | 0.01 | 76 | 1014.2 |
| 20260510150539 | 85 | 181 | 3.0 | 12.0 | 0.00 | 0.05 | 0.01 | 77 | 1014.3 |
| 20260510150039 | 85 | 227 | 5.0 | 9.0 | 0.00 | 0.05 | 0.01 | 76 | 1014.3 |
| 20260510145536 | 85 | 224 | 2.0 | 9.0 | 0.00 | 0.05 | 0.01 | 77 | 1014.3 |
| 20260510145034 | 84 | 137 | 5.0 | 9.0 | 0.00 | 0.05 | 0.01 | 77 | 1014.3 |
| 20260510144535 | 84 | 156 | 5.0 | 9.0 | 0.00 | 0.05 | 0.01 | 77 | 1014.3 |
| 20260510144031 | 84 | 172 | 2.0 | 6.0 | 0.00 | 0.05 | 0.01 | 79 | 1014.4 |
| 20260510143529 | 84 | 273 | 2.0 | 6.0 | 0.00 | 0.05 | 0.01 | 79 | 1014.4 |
| 20260510143031 | 84 | 208 | 4.0 | 9.0 | 0.00 | 0.05 | 0.01 | 78 | 1014.3 |
| 20260510142528 | 84 | 82 | 4.0 | 9.0 | 0.00 | 0.05 | 0.01 | 79 | 1014.3 |
| 20260510142025 | 83 | 145 | 2.0 | 7.0 | 0.00 | 0.05 | 0.01 | 80 | 1014.3 |
| 20260510141524 | 83 | 175 | 2.0 | 6.0 | 0.00 | 0.05 | 0.01 | 80 | 1014.3 |
| 20260510141041 | 83 | 105 | 3.0 | 7.0 | 0.00 | 0.05 | 0.01 | 80 | 1014.2 |
| 20260510140604 | 83 | 196 | 4.0 | 7.0 | 0.00 | 0.05 | 0.01 | 79 | 1014.2 |
| 20260510140042 | 83 | 246 | 4.0 | 6.0 | 0.00 | 0.05 | 0.01 | 80 | 1014.1 |
| 20260510135541 | 82 | 195 | 3.0 | 8.0 | 0.00 | 0.05 | 0.01 | 82 | 1014.0 |
| 20260510135040 | 82 | 176 | 3.0 | 8.0 | 0.00 | 0.05 | 0.01 | 82 | 1013.8 |
| 20260510134540 | 81 | 139 | 5.0 | 9.0 | 0.00 | 0.05 | 0.01 | 82 | 1013.8 |
| 20260510134056 | 81 | 115 | 5.0 | 8.0 | 0.00 | 0.05 | 0.01 | 82 | 1013.8 |
| 20260510133538 | 81 | 102 | 6.0 | 9.0 | 0.00 | 0.05 | 0.01 | 82 | 1013.7 |
| 20260510133036 | 81 | 128 | 5.0 | 9.0 | 0.00 | 0.05 | 0.01 | 83 | 1013.8 |
| 20260510132534 | 80 | 126 | 4.0 | 10.0 | 0.00 | 0.05 | 0.01 | 83 | 1013.8 |
| 20260510132033 | 80 | 123 | 3.0 | 10.0 | 0.00 | 0.05 | 0.01 | 84 | 1013.8 |
| 20260510131531 | 80 | 155 | 4.0 | 8.0 | 0.00 | 0.05 | 0.01 | 84 | 1013.9 |
| 20260510131030 | 79 | 118 | 5.0 | 10.0 | 0.00 | 0.05 | 0.01 | 85 | 1013.8 |
| 20260510130531 | 79 | 124 | 6.0 | 10.0 | 0.00 | 0.05 | 0.01 | 85 | 1013.8 |
| 20260510130029 | 79 | 102 | 5.0 | 9.0 | 0.00 | 0.05 | 0.01 | 85 | 1013.6 |
| 20260510125525 | 78 | 125 | 5.0 | 8.0 | 0.00 | 0.05 | 0.01 | 86 | 1013.6 |
| 20260510125042 | 78 | 132 | 6.0 | 8.0 | 0.00 | 0.05 | 0.01 | 86 | 1013.6 |
| 20260510124541 | 78 | 117 | 4.0 | 7.0 | 0.00 | 0.05 | 0.01 | 87 | 1013.6 |
| 20260510124058 | 78 | 153 | 4.0 | 7.0 | 0.00 | 0.05 | 0.01 | 88 | 1013.5 |
| 20260510123554 | 77 | 115 | 3.0 | 6.0 | 0.00 | 0.05 | 0.01 | 88 | 1013.5 |
| 20260510123030 | 77 | 127 | 2.0 | 6.0 | 0.00 | 0.05 | 0.01 | 88 | 1013.6 |
| 20260510122528 | 77 | 120 | 2.0 | 6.0 | 0.00 | 0.05 | 0.01 | 88 | 1013.4 |
| 20260510122023 | 77 | 138 | 4.0 | 7.0 | 0.00 | 0.05 | 0.01 | 88 | 1013.5 |
| 20260510121539 | 77 | 125 | 3.0 | 7.0 | 0.00 | 0.05 | 0.01 | 89 | 1013.4 |
| 20260510121033 | 77 | 117 | 3.0 | 7.0 | 0.00 | 0.05 | 0.01 | 89 | 1013.4 |
| 20260510120532 | 77 | 125 | 3.0 | 4.0 | 0.00 | 0.05 | 0.01 | 89 | 1013.3 |
| 20260510120031 | 77 | 128 | 2.0 | 3.0 | 0.00 | 0.05 | 0.01 | 89 | 1013.3 |
| 20260510115549 | 76 | 125 | 2.0 | 6.0 | 0.00 | 0.05 | 0.01 | 89 | 1013.3 |
| 20260510115047 | 76 | 123 | 3.0 | 6.0 | 0.00 | 0.05 | 0.01 | 89 | 1013.2 |
| 20260510114527 | 76 | 136 | 3.0 | 4.0 | 0.00 | 0.05 | 0.01 | 89 | 1013.1 |
| 20260510114023 | 76 | 145 | 2.0 | 3.0 | 0.00 | 0.05 | 0.01 | 89 | 1013.0 |
| 20260510113543 | 76 | 145 | 1.0 | 2.0 | 0.00 | 0.05 | 0.01 | 89 | 1012.9 |
| 20260510113042 | 76 | 151 | 0.0 | 1.0 | 0.00 | 0.05 | 0.01 | 89 | 1012.8 |
| 20260510112541 | 76 | 151 | 0.0 | 2.0 | 0.00 | 0.05 | 0.01 | 89 | 1012.7 |
| 20260510112038 | 76 | 151 | 1.0 | 3.0 | 0.00 | 0.05 | 0.01 | 89 | 1012.6 |
| 20260510111541 | 76 | 190 | 0.0 | 3.0 | 0.00 | 0.05 | 0.01 | 89 | 1012.5 |
| 20260510111102 | 76 | 132 | 2.0 | 3.0 | 0.00 | 0.05 | 0.01 | 89 | 1012.5 |
| 20260510110540 | 76 | 132 | 1.0 | 3.0 | 0.00 | 0.05 | 0.01 | 89 | 1012.4 |
| 20260510110037 | 76 | 122 | 1.0 | 3.0 | 0.00 | 0.05 | 0.01 | 89 | 1012.4 |
| 20260510105535 | 76 | 122 | 1.0 | 3.0 | 0.00 | 0.05 | 0.01 | 89 | 1012.3 |
| 20260510105031 | 76 | 122 | 1.0 | 3.0 | 0.00 | 0.05 | 0.01 | 89 | 1012.2 |
| 20260510104532 | 76 | 122 | 2.0 | 3.0 | 0.00 | 0.05 | 0.01 | 89 | 1012.1 |
| 20260510104049 | 76 | 122 | 2.0 | 3.0 | 0.00 | 0.05 | 0.01 | 89 | 1012.0 |
| 20260510103528 | 76 | 121 | 1.0 | 4.0 | 0.00 | 0.05 | 0.01 | 89 | 1011.9 |
| 20260510103028 | 76 | 121 | 3.0 | 4.0 | 0.00 | 0.05 | 0.01 | 89 | 1011.8 |
| 20260510102526 | 76 | 121 | 2.0 | 6.0 | 0.00 | 0.05 | 0.01 | 89 | 1011.7 |
| 20260510102023 | 76 | 114 | 3.0 | 6.0 | 0.00 | 0.05 | 0.01 | 89 | 1011.6 |
| 20260510101543 | 76 | 132 | 2.0 | 5.0 | 0.00 | 0.05 | 0.01 | 90 | 1011.4 |
| 20260510101041 | 76 | 122 | 3.0 | 7.0 | 0.00 | 0.05 | 0.01 | 89 | 1011.4 |
| 20260510100539 | 76 | 118 | 4.0 | 7.0 | 0.00 | 0.05 | 0.01 | 89 | 1011.3 |
| 20260510095537 | 76 | 132 | 5.0 | 7.0 | 0.00 | 0.05 | 0.01 | 89 | 1011.2 |
| 20260510095034 | 76 | 118 | 4.0 | 6.0 | 0.00 | 0.05 | 0.01 | 89 | 1011.2 |
| 20260510094537 | 76 | 123 | 3.0 | 6.0 | 0.00 | 0.05 | 0.01 | 89 | 1011.3 |
| 20260510094034 | 76 | 123 | 3.0 | 6.0 | 0.00 | 0.05 | 0.01 | 89 | 1011.2 |
| 20260510093555 | 76 | 128 | 4.0 | 6.0 | 0.00 | 0.05 | 0.01 | 89 | 1011.2 |
| 20260510093034 | 76 | 126 | 4.0 | 6.0 | 0.00 | 0.05 | 0.01 | 89 | 1011.1 |
| 20260510092551 | 76 | 131 | 2.0 | 6.0 | 0.00 | 0.05 | 0.01 | 89 | 1011.1 |
| 20260510092027 | 76 | 128 | 3.0 | 6.0 | 0.00 | 0.05 | 0.01 | 89 | 1011.1 |
| 20260510091526 | 76 | 130 | 4.0 | 8.0 | 0.00 | 0.05 | 0.01 | 89 | 1011.0 |
| 20260510091024 | 76 | 146 | 4.0 | 8.0 | 0.00 | 0.05 | 0.01 | 89 | 1010.8 |
| 20260510090542 | 76 | 126 | 3.0 | 8.0 | 0.00 | 0.05 | 0.01 | 89 | 1010.7 |
| 20260510090042 | 76 | 119 | 4.0 | 7.0 | 0.00 | 0.05 | 0.01 | 89 | 1010.8 |
| 20260510085539 | 76 | 121 | 4.0 | 8.0 | 0.00 | 0.05 | 0.01 | 90 | 1010.7 |
| 20260510085036 | 76 | 136 | 5.0 | 8.0 | 0.00 | 0.05 | 0.01 | 90 | 1010.6 |
| 20260510084532 | 76 | 132 | 5.0 | 7.0 | 0.00 | 0.05 | 0.01 | 90 | 1010.5 |
| 20260510084028 | 76 | 130 | 2.0 | 8.0 | 0.00 | 0.05 | 0.01 | 90 | 1010.5 |
| 20260510083527 | 76 | 125 | 5.0 | 8.0 | 0.00 | 0.05 | 0.01 | 90 | 1010.5 |
| 20260510083026 | 76 | 122 | 6.0 | 8.0 | 0.00 | 0.05 | 0.01 | 90 | 1010.6 |
| 20260510082523 | 76 | 119 | 2.0 | 6.0 | 0.00 | 0.05 | 0.01 | 90 | 1010.6 |
| 20260510082035 | 76 | 122 | 4.0 | 8.0 | 0.00 | 0.05 | 0.01 | 90 | 1010.6 |
| 20260510081601 | 76 | 126 | 5.0 | 8.0 | 0.00 | 0.05 | 0.01 | 90 | 1010.7 |
| 20260510081038 | 76 | 125 | 3.0 | 6.0 | 0.00 | 0.05 | 0.01 | 90 | 1010.8 |
| 20260510080538 | 76 | 124 | 3.0 | 4.0 | 0.00 | 0.05 | 0.01 | 90 | 1010.9 |
| 20260510080037 | 76 | 125 | 2.0 | 4.0 | 0.00 | 0.05 | 0.01 | 90 | 1011.0 |
| 20260510075534 | 76 | 124 | 1.0 | 4.0 | 0.00 | 0.05 | 0.01 | 90 | 1010.9 |
| 20260510075032 | 76 | 124 | 1.0 | 6.0 | 0.00 | 0.05 | 0.01 | 90 | 1010.9 |
| 20260510074532 | 76 | 124 | 2.0 | 6.0 | 0.00 | 0.05 | 0.01 | 90 | 1010.9 |
| 20260510074050 | 76 | 126 | 3.0 | 6.0 | 0.00 | 0.05 | 0.01 | 90 | 1010.8 |
| 20260510073528 | 76 | 128 | 4.0 | 5.0 | 0.00 | 0.05 | 0.01 | 90 | 1010.7 |
| 20260510073026 | 77 | 126 | 4.0 | 6.0 | 0.00 | 0.05 | 0.01 | 90 | 1010.7 |
| 20260510072525 | 77 | 109 | 3.0 | 7.0 | 0.00 | 0.05 | 0.01 | 90 | 1010.8 |
| 20260510072042 | 77 | 109 | 4.0 | 7.0 | 0.00 | 0.05 | 0.01 | 90 | 1010.9 |
| 20260510071542 | 77 | 103 | 4.0 | 7.0 | 0.00 | 0.05 | 0.01 | 90 | 1011.0 |
| 20260510071042 | 77 | 112 | 4.0 | 7.0 | 0.00 | 0.05 | 0.01 | 90 | 1011.1 |
| 20260510070539 | 77 | 105 | 3.0 | 6.0 | 0.00 | 0.05 | 0.01 | 90 | 1011.2 |
| 20260510070038 | 77 | 105 | 4.0 | 6.0 | 0.00 | 0.05 | 0.01 | 90 | 1011.2 |
| 20260510065533 | 77 | 117 | 4.0 | 6.0 | 0.00 | 0.05 | 0.01 | 90 | 1011.1 |
| 20260510065030 | 78 | 121 | 2.0 | 3.0 | 0.00 | 0.05 | 0.01 | 90 | 1011.3 |
| 20260510064549 | 78 | 121 | 1.0 | 3.0 | 0.00 | 0.05 | 0.01 | 90 | 1011.3 |
| 20260510064024 | 78 | 121 | 2.0 | 3.0 | 0.00 | 0.05 | 0.01 | 90 | 1011.3 |
| 20260510063543 | 78 | 121 | 2.0 | 4.0 | 0.00 | 0.05 | 0.01 | 90 | 1011.3 |
| 20260510063042 | 78 | 121 | 3.0 | 5.0 | 0.00 | 0.05 | 0.01 | 90 | 1011.2 |
| 20260510062539 | 78 | 126 | 3.0 | 5.0 | 0.00 | 0.05 | 0.01 | 90 | 1011.4 |
| 20260510062102 | 78 | 131 | 0.0 | 1.0 | 0.00 | 0.05 | 0.01 | 90 | 1011.5 |
| 20260510061542 | 78 | 130 | 0.0 | 1.0 | 0.00 | 0.05 | 0.01 | 90 | 1011.7 |
| 20260510061040 | 78 | 130 | 0.0 | 1.0 | 0.00 | 0.05 | 0.01 | 90 | 1011.6 |
| 20260510060538 | 78 | 130 | 0.0 | 1.0 | 0.00 | 0.05 | 0.01 | 90 | 1011.7 |
| 20260510060056 | 78 | 136 | 0.0 | 0.0 | 0.00 | 0.05 | 0.01 | 90 | 1011.8 |
| 20260510055534 | 79 | 132 | 0.0 | 0.0 | 0.00 | 0.05 | 0.01 | 90 | 1011.9 |
| 20260510055052 | 79 | 170 | 0.0 | 0.0 | 0.01 | 0.05 | 0.01 | 90 | 1012.0 |
| 20260510054531 | 78 | 171 | 0.0 | 0.0 | 0.01 | 0.05 | 0.01 | 90 | 1012.1 |
| 20260510054030 | 78 | 171 | 0.0 | 0.0 | 0.01 | 0.05 | 0.01 | 90 | 1012.1 |
| 20260510053530 | 78 | 171 | 0.0 | 0.0 | 0.01 | 0.05 | 0.01 | 90 | 1012.2 |
| 20260510053030 | 79 | 171 | 0.0 | 0.0 | 0.01 | 0.05 | 0.01 | 90 | 1012.2 |
| 20260510052548 | 79 | 171 | 0.0 | 0.0 | 0.01 | 0.05 | 0.01 | 90 | 1012.2 |
| 20260510052026 | 79 | 171 | 0.0 | 0.0 | 0.01 | 0.05 | 0.01 | 90 | 1012.2 |
| 20260510051525 | 79 | 173 | 0.0 | 0.0 | 0.01 | 0.05 | 0.01 | 90 | 1012.2 |
| 20260510051023 | 79 | 182 | 0.0 | 0.0 | 0.01 | 0.05 | 0.01 | 90 | 1012.3 |
| 20260510050541 | 79 | 269 | 0.0 | 0.0 | 0.01 | 0.05 | 0.01 | 90 | 1012.3 |
| 20260510050039 | 79 | 269 | 0.0 | 0.0 | 0.01 | 0.05 | 0.01 | 90 | 1012.4 |
| 20260510045536 | 79 | 269 | 0.0 | 0.0 | 0.00 | 0.04 | 0.00 | 90 | 1012.4 |
| 20260510045054 | 79 | 269 | 0.0 | 0.0 | 0.00 | 0.04 | 0.00 | 90 | 1012.5 |
| 20260510044531 | 79 | 269 | 0.0 | 0.0 | 0.00 | 0.04 | 0.00 | 90 | 1012.5 |
| 20260510044028 | 79 | 269 | 0.0 | 0.0 | 0.00 | 0.04 | 0.00 | 90 | 1012.6 |
| 20260510043526 | 79 | 269 | 0.0 | 0.0 | 0.00 | 0.04 | 0.00 | 90 | 1012.5 |
| 20260510043033 | 79 | 269 | 0.0 | 0.0 | 0.00 | 0.04 | 0.00 | 90 | 1012.5 |
| 20260510042537 | 79 | 269 | 0.0 | 0.0 | 0.00 | 0.04 | 0.00 | 90 | 1012.4 |
| 20260510042034 | 79 | 269 | 0.0 | 0.0 | 0.00 | 0.04 | 0.00 | 89 | 1012.5 |
| 20260510041600 | 79 | 269 | 0.0 | 0.0 | 0.00 | 0.04 | 0.00 | 89 | 1012.6 |
| 20260510041036 | 79 | 269 | 0.0 | 0.0 | 0.00 | 0.04 | 0.00 | 89 | 1012.5 |
| 20260510040535 | 79 | 269 | 0.0 | 0.0 | 0.00 | 0.04 | 0.00 | 89 | 1012.5 |
| 20260510040035 | 79 | 269 | 0.0 | 0.0 | 0.00 | 0.04 | 0.00 | 89 | 1012.4 |
| 20260510035531 | 79 | 269 | 0.0 | 0.0 | 0.00 | 0.04 | 0.00 | 89 | 1012.5 |
| 20260510035026 | 79 | 269 | 0.0 | 0.0 | 0.00 | 0.04 | 0.00 | 89 | 1012.4 |
| 20260510034525 | 79 | 269 | 0.0 | 0.0 | 0.00 | 0.04 | 0.00 | 90 | 1012.4 |
| 20260510034040 | 79 | 269 | 0.0 | 0.0 | 0.00 | 0.04 | 0.00 | 89 | 1012.3 |
| 20260510033540 | 79 | 269 | 0.0 | 0.0 | 0.00 | 0.04 | 0.00 | 89 | 1012.3 |
| 20260510033036 | 79 | 269 | 0.0 | 0.0 | 0.00 | 0.04 | 0.04 | 89 | 1012.1 |
| 20260510032559 | 79 | 269 | 0.0 | 0.0 | 0.00 | 0.04 | 0.04 | 89 | 1012.1 |
| 20260510032036 | 79 | 284 | 0.0 | 0.0 | 0.00 | 0.04 | 0.04 | 89 | 1012.2 |
| 20260510031535 | 79 | 284 | 0.0 | 0.0 | 0.00 | 0.04 | 0.04 | 89 | 1012.2 |
| 20260510031033 | 79 | 284 | 0.0 | 0.0 | 0.00 | 0.04 | 0.04 | 89 | 1012.3 |
| 20260510030531 | 79 | 284 | 0.0 | 0.0 | 0.00 | 0.04 | 0.04 | 89 | 1012.2 |
| 20260510030048 | 79 | 284 | 0.0 | 0.0 | 0.00 | 0.04 | 0.04 | 89 | 1012.1 |
| 20260510025524 | 79 | 284 | 0.0 | 0.0 | 0.00 | 0.04 | 0.04 | 89 | 1012.2 |
| 20260510025043 | 79 | 284 | 0.0 | 0.0 | 0.00 | 0.04 | 0.04 | 88 | 1012.2 |
| 20260510024540 | 79 | 284 | 0.0 | 0.0 | 0.02 | 0.04 | 0.04 | 88 | 1012.2 |
| 20260510024057 | 79 | 284 | 0.0 | 0.0 | 0.03 | 0.04 | 0.04 | 88 | 1012.1 |
| 20260510023534 | 79 | 284 | 0.0 | 0.0 | 0.04 | 0.04 | 0.04 | 88 | 1012.1 |
| 20260510023032 | 79 | 284 | 0.0 | 0.0 | 0.04 | 0.04 | 0.04 | 87 | 1012.0 |
| 20260510022548 | 79 | 284 | 0.0 | 0.0 | 0.04 | 0.04 | 0.04 | 87 | 1012.0 |
| 20260510022026 | 79 | 284 | 0.0 | 0.0 | 0.04 | 0.04 | 0.04 | 86 | 1011.9 |
| 20260510021526 | 79 | 284 | 0.0 | 0.0 | 0.04 | 0.04 | 0.04 | 86 | 1011.9 |
| 20260510021025 | 80 | 284 | 0.0 | 0.0 | 0.04 | 0.04 | 0.04 | 86 | 1011.9 |
| 20260510020543 | 80 | 284 | 0.0 | 0.0 | 0.04 | 0.04 | 0.04 | 86 | 1012.0 |
| 20260510020042 | 80 | 284 | 0.0 | 0.0 | 0.04 | 0.04 | 0.04 | 85 | 1011.9 |
| 20260510015538 | 80 | 284 | 0.0 | 0.0 | 0.04 | 0.04 | 0.04 | 84 | 1012.0 |
| 20260510015036 | 80 | 284 | 0.0 | 0.0 | 0.04 | 0.04 | 0.04 | 84 | 1011.8 |
| 20260510014538 | 81 | 284 | 0.0 | 0.0 | 0.02 | 0.02 | 0.02 | 84 | 1011.8 |
| 20260510014101 | 81 | 284 | 0.0 | 1.0 | 0.01 | 0.01 | 0.01 | 83 | 1011.8 |
| 20260510013540 | 81 | 284 | 0.0 | 1.0 | 0.00 | 0.00 | 0.00 | 82 | 1011.8 |
| 20260510013038 | 81 | 290 | 0.0 | 0.0 | 0.00 | 0.00 | 0.00 | 82 | 1011.8 |
| 20260510012537 | 81 | 290 | 0.0 | 0.0 | 0.00 | 0.00 | 0.00 | 82 | 1011.7 |
| 20260510012035 | 81 | 333 | 0.0 | 0.0 | 0.00 | 0.00 | 0.00 | 81 | 1011.6 |
| 20260510011534 | 81 | 333 | 0.0 | 0.0 | 0.00 | 0.00 | 0.00 | 81 | 1011.4 |
| 20260510011030 | 81 | 333 | 0.0 | 0.0 | 0.00 | 0.00 | 0.00 | 81 | 1011.4 |
| 20260510010528 | 81 | 333 | 0.0 | 0.0 | 0.00 | 0.00 | 0.00 | 80 | 1011.2 |
| 20260510010028 | 81 | 333 | 0.0 | 0.0 | 0.00 | 0.00 | 0.00 | 80 | 1011.2 |
| 20260510005547 | 82 | 323 | 0.0 | 0.0 | 0.00 | 0.00 | 0.00 | 80 | 1011.2 |
| 20260510005025 | 82 | 317 | 0.0 | 0.0 | 0.00 | 0.00 | 0.00 | 80 | 1011.2 |
| 20260510004526 | 82 | 301 | 0.0 | 0.0 | 0.00 | 0.00 | 0.00 | 79 | 1011.1 |
| 20260510004024 | 82 | 298 | 0.0 | 0.0 | 0.00 | 0.00 | 0.00 | 79 | 1011.1 |
| 20260510003543 | 82 | 298 | 0.0 | 1.0 | 0.00 | 0.00 | 0.00 | 79 | 1011.0 |
| 20260510003039 | 82 | 298 | 0.0 | 4.0 | 0.00 | 0.00 | 0.00 | 79 | 1011.0 |
| 20260510002556 | 82 | 298 | 3.0 | 4.0 | 0.00 | 0.00 | 0.00 | 79 | 1010.9 |
| 20260510002032 | 82 | 265 | 2.0 | 4.0 | 0.00 | 0.00 | 0.00 | 78 | 1010.8 |
| 20260510001530 | 82 | 273 | 2.0 | 4.0 | 0.00 | 0.00 | 0.00 | 78 | 1010.8 |
| 20260510001028 | 82 | 273 | 2.0 | 4.0 | 0.00 | 0.00 | 0.00 | 78 | 1010.5 |
| 20260510000528 | 82 | 271 | 2.0 | 4.0 | 0.00 | 0.00 | 0.00 | 78 | 1010.5 |
| 20260510000026 | 82 | 265 | 2.0 | 5.0 | 0.00 | 0.00 | 0.00 | 77 | 1010.5 |
| 20260509235538 | 83 | 260 | 1.0 | 5.0 | 0.00 | 0.00 | 0.00 | 77 | 1010.3 |
| 20260509235056 | 83 | 267 | 3.0 | 6.0 | 0.00 | 0.00 | 0.00 | 76 | 1010.4 |
| 20260509234554 | 83 | 303 | 1.0 | 7.0 | 0.00 | 0.00 | 0.00 | 76 | 1010.3 |
| 20260509234029 | 83 | 261 | 3.0 | 7.0 | 0.00 | 0.00 | 0.00 | 75 | 1010.3 |
| 20260509233529 | 83 | 280 | 3.0 | 7.0 | 0.00 | 0.00 | 0.00 | 75 | 1010.3 |
| 20260509233028 | 83 | 290 | 4.0 | 8.0 | 0.00 | 0.00 | 0.00 | 74 | 1010.3 |
| 20260509232526 | 84 | 269 | 4.0 | 8.0 | 0.00 | 0.00 | 0.00 | 73 | 1010.3 |
| 20260509232045 | 84 | 303 | 4.0 | 8.0 | 0.00 | 0.00 | 0.00 | 72 | 1010.2 |
| 20260509231543 | 84 | 289 | 3.0 | 8.0 | 0.00 | 0.00 | 0.00 | 71 | 1010.1 |
| 20260509231040 | 84 | 271 | 5.0 | 9.0 | 0.00 | 0.00 | 0.00 | 70 | 1010.1 |
| 20260509230535 | 85 | 271 | 4.0 | 10.0 | 0.00 | 0.00 | 0.00 | 69 | 1010.1 |
| 20260509230036 | 85 | 265 | 3.0 | 10.0 | 0.00 | 0.00 | 0.00 | 68 | 1010.1 |
| 20260509225530 | 85 | 274 | 3.0 | 10.0 | 0.00 | 0.00 | 0.00 | 68 | 1010.1 |
| 20260509225027 | 85 | 273 | 4.0 | 8.0 | 0.00 | 0.00 | 0.00 | 67 | 1010.1 |
| 20260509224524 | 85 | 237 | 4.0 | 8.0 | 0.00 | 0.00 | 0.00 | 67 | 1010.0 |
| 20260509224041 | 86 | 267 | 1.0 | 8.0 | 0.00 | 0.00 | 0.00 | 66 | 1009.9 |
| 20260509223537 | 86 | 284 | 4.0 | 9.0 | 0.00 | 0.00 | 0.00 | 65 | 1009.9 |
| 20260509223037 | 86 | 264 | 4.0 | 10.0 | 0.00 | 0.00 | 0.00 | 64 | 1009.9 |
| 20260509222552 | 87 | 309 | 4.0 | 10.0 | 0.00 | 0.00 | 0.00 | 64 | 1009.8 |
| 20260509222048 | 87 | 282 | 3.0 | 11.0 | 0.00 | 0.00 | 0.00 | 63 | 1009.8 |
| 20260509221527 | 87 | 280 | 5.0 | 10.0 | 0.00 | 0.00 | 0.00 | 62 | 1009.7 |
| 20260509221046 | 88 | 213 | 5.0 | 10.0 | 0.00 | 0.00 | 0.00 | 61 | 1009.7 |
| 20260509220543 | 89 | 257 | 3.0 | 8.0 | 0.00 | 0.00 | 0.00 | 60 | 1009.6 |
| 20260509220038 | 89 | 236 | 2.0 | 10.0 | 0.00 | 0.00 | 0.00 | 59 | 1009.6 |
| 20260509215534 | 89 | 238 | 2.0 | 11.0 | 0.00 | 0.00 | 0.00 | 58 | 1009.6 |
| 20260509215031 | 90 | 277 | 4.0 | 11.0 | 0.00 | 0.00 | 0.00 | 58 | 1009.5 |
| 20260509214527 | 90 | 248 | 3.0 | 7.0 | 0.00 | 0.00 | 0.00 | 59 | 1009.4 |
| 20260509214024 | 90 | 243 | 4.0 | 10.0 | 0.00 | 0.00 | 0.00 | 58 | 1009.4 |
| 20260509213543 | 89 | 258 | 3.0 | 11.0 | 0.00 | 0.00 | 0.00 | 59 | 1009.4 |
| 20260509213039 | 90 | 181 | 6.0 | 12.0 | 0.00 | 0.00 | 0.00 | 58 | 1009.2 |
| 20260509212537 | 90 | 291 | 3.0 | 8.0 | 0.00 | 0.00 | 0.00 | 59 | 1009.2 |
| 20260509211541 | 89 | 192 | 3.0 | 7.0 | 0.00 | 0.00 | 0.00 | 61 | 1009.2 |
| 20260509211039 | 89 | 239 | 4.0 | 7.0 | 0.00 | 0.00 | 0.00 | 61 | 1009.2 |
| 20260509210539 | 88 | 191 | 3.0 | 8.0 | 0.00 | 0.00 | 0.00 | 63 | 1009.2 |
| 20260509210038 | 88 | 165 | 4.0 | 9.0 | 0.00 | 0.00 | 0.00 | 63 | 1009.2 |
| 20260509205535 | 88 | 250 | 5.0 | 12.0 | 0.00 | 0.00 | 0.00 | 63 | 1009.1 |
| 20260509205059 | 89 | 279 | 3.0 | 12.0 | 0.00 | 0.00 | 0.00 | 63 | 1009.2 |